Weather in Pushkino

Russia / Republic of Mordovia     54°05′40″N   44°22′24″E
temp.,
°C
wind,
m/s
gust,
m/s
humid.,
%
clouds,
%
prec.,
mm/h
press.,
hPa
HPBL,
m
8 august, mon
mon800:00+20sse33523 0.0 101921
03:00+18s11575 0.0 101911
06:00+19se11615 0.0 102011
09:00+25se22475 0.0 1020349
12:00+29s113712 0.0 10201150
15:00+30ssw223119 0.0 10192541
18:00+28e014424 0.0 101911
21:00+22s225253 0.0 102012
9 august, tue
tue900:00+20ese22560 0.0 102013
03:00+19s22621 0.0 102011
06:00+20sse11640 0.0 102011
09:00+26se22490 0.0 1020402
12:00+29sse22385 0.0 10191344
15:00+30se213280 0.0 10182312
18:00+27sse124596 0.0 101853
21:00+21se225447 0.0 101813
10 august, wed
wed1000:00+20se2255100 0.0 101820
03:00+19ese115847 0.0 101811
06:00+20wsw2363100 0.0 101872
09:00+23nne2356100 0.0 1018321
12:00+24nnw4357100 0.0 1019662
15:00+23n3466100 0.0 1019320
18:00+23nnw4665100 0.0 1019508
21:00+18n3585100 0.0 1020110
11 august, thu
thu1100:00+17nnw3888100 0.1 1021225
03:00+15n497950 0.1 1021228
06:00+13n388018 0.0 1023206
09:00+19n56600 0.0 1023708
12:00+22nne66473 0.0 10231250
15:00+23ne56410 0.0 10231465
18:00+21ne36530 0.0 1023336
21:00+16ene22640 0.0 102411
12 august, fri
fri1200:00+14nne11695 0.0 102511
03:00+13nnw117297 0.0 102510
06:00+15wnw127239 0.0 102533
09:00+21wnw34515 0.0 1025582
12:00+24nw34405 0.0 10241886
15:00+26nw453531 0.0 10232118
18:00+24nnw22481 0.0 102247
21:00+17nnw11580 0.0 102311